Cedar, IA

2:03 PM CST on February 19, 2017 (GMT -0600)
Oskaloosa Municipal

Weather History for KOOA - March, 2013

Change the Weather History Date:

Sunday, March 31, 2013

  Actual Average (KOTM) Record (KOTM)
Temperature  
Mean Temperature 44 °F -  
Max Temperature 55 °F 56 °F 83 °F (1986)
Min Temperature 33 °F 35 °F 12 °F (1923)
Degree Days  
Heating Degree Days 21    
Moisture  
Dew Point 34 °F    
Average Humidity 74    
Maximum Humidity 96    
Minimum Humidity 34    
Precipitation  
Precipitation 0.01 in - - ()
Sea Level Pressure  
Sea Level Pressure 29.92 in    
Wind  
Wind Speed 10 mph (NW)    
Max Wind Speed 25 mph    
Max Gust Speed 36 mph    
Visibility 6 miles    
Events Fog    
Averages and records for this station are not official NWS values.
T = Trace of Precipitation, MM = Missing Value Source: NWS Daily Summary

Daily Weather History Graph

Daily Weather History Graph

Search for Another Location

Airport or City:

Trip Planner

Search our weather history database for the weather conditions in past years. The results will help you decide how hot, cold, wet, or windy it might be!

Date:

Astronomy

Mar. 31, 2013 Rise Set
Actual Time 6:54 AM CDT 7:34 PM CDT
Civil Twilight 6:26 AM CDT 8:02 PM CDT
Nautical Twilight 5:53 AM CDT 8:35 PM CDT
Astronomical Twilight 5:19 AM CDT 9:09 PM CDT
Moon No Moon Rise 9:40 AM CDT (3/31)
Length of Visible Light 13h 35m
Length of Day
12h 39m
Waning Gibbous, 77% of the Moon is Illuminated
Mar 31
Waning Gibbous
Apr 2
Last Quarter
Apr 10
New
Apr 18
First Quarter
Apr 25
Full

Hourly Weather History & Observations

Time (CDT) Temp. Windchill Dew Point Humidity Pressure Visibility Wind Dir Wind Speed Gust Speed Precip Events Conditions
12:15 AM 43.7 °F 42.1 °F 42.3 °F 95% 29.89 in 0.2 mi WSW 3.5 mph - N/A   Unknown
12:35 AM 43.7 °F 42.1 °F 42.1 °F 94% 29.88 in 0.2 mi WSW 3.5 mph - N/A   Unknown
12:55 AM 43.2 °F 40.5 °F 41.9 °F 95% 29.88 in 0.2 mi West 4.6 mph - N/A Fog Fog
1:15 AM 43.0 °F 39.5 °F 41.5 °F 95% 29.89 in 0.2 mi West 5.8 mph - N/A Fog Fog
1:35 AM 42.4 °F 39.6 °F 41.0 °F 95% 29.89 in 0.2 mi West 4.6 mph - N/A Fog Fog
1:55 AM 41.4 °F 37.6 °F 40.1 °F 95% 29.89 in 0.2 mi West 5.8 mph - N/A Fog Fog
2:15 AM 41.2 °F 39.2 °F 39.7 °F 95% 29.89 in 0.5 mi WNW 3.5 mph - 0.01 in Fog Fog
2:35 AM 41.2 °F 38.2 °F 39.7 °F 95% 29.89 in 0.2 mi WNW 4.6 mph - 0.01 in Fog Fog
2:55 AM 41.2 °F 39.2 °F 39.7 °F 95% 29.88 in 0.2 mi WNW 3.5 mph - 0.01 in Fog Fog
3:15 AM 41.0 °F 39.0 °F 39.6 °F 95% 29.88 in 0.5 mi NW 3.5 mph - N/A Fog Fog
3:35 AM 41.0 °F 37.1 °F 39.6 °F 95% 29.89 in 0.5 mi West 5.8 mph - N/A Fog Fog
3:55 AM 40.6 °F 37.5 °F 39.2 °F 95% 29.88 in 0.2 mi West 4.6 mph - N/A Fog Fog
4:15 AM 40.1 °F 38.0 °F 38.7 °F 95% 29.87 in 0.2 mi West 3.5 mph - N/A Fog Fog
4:35 AM 38.7 °F 36.3 °F 37.4 °F 95% 29.87 in 0.2 mi West 3.5 mph - N/A Fog Fog
4:55 AM 37.6 °F 34.0 °F 36.5 °F 96% 29.87 in 0.2 mi West 4.6 mph - N/A Fog Fog
5:15 AM 36.7 °F 32.0 °F 35.6 °F 96% 29.87 in 0.2 mi West 5.8 mph - N/A Fog Fog
5:35 AM 35.6 °F 30.7 °F 34.3 °F 95% 29.88 in 0.2 mi West 5.8 mph - N/A Fog Fog
5:55 AM 34.7 °F 29.6 °F 33.3 °F 94% 29.88 in 0.5 mi West 5.8 mph - N/A Fog Fog
6:15 AM 33.8 °F 27.0 °F 32.7 °F 96% 29.88 in 0.2 mi WNW 8.1 mph - N/A Fog Fog
6:35 AM 33.8 °F 27.7 °F 32.4 °F 94% 29.89 in 0.5 mi WNW 6.9 mph - N/A Fog Fog
6:55 AM 33.8 °F 27.7 °F 32.5 °F 95% 29.89 in 0.5 mi WNW 6.9 mph - N/A Fog Fog
7:15 AM 33.3 °F 27.1 °F 32.2 °F 96% 29.90 in 0.5 mi WNW 6.9 mph - N/A Fog Fog
7:35 AM 33.8 °F 27.7 °F 32.5 °F 95% 29.90 in 1.5 mi NW 6.9 mph - N/A   Scattered Clouds
7:55 AM 35.8 °F 30.1 °F 34.7 °F 96% 29.90 in 2.5 mi WNW 6.9 mph - N/A   Clear
8:15 AM 37.2 °F 31.9 °F 36.0 °F 95% 29.90 in 2.5 mi WNW 6.9 mph - N/A   Clear
8:35 AM 38.3 °F 33.2 °F 36.7 °F 94% 29.90 in 2.5 mi WNW 6.9 mph - N/A   Clear
8:55 AM 39.4 °F 33.2 °F 37.9 °F 95% 29.89 in 3.0 mi WNW 9.2 mph - N/A   Clear
9:15 AM 40.6 °F 33.4 °F 39.4 °F 95% 29.89 in 3.0 mi WNW 12.7 mph - N/A   Clear
9:35 AM 42.8 °F 36.2 °F 41.2 °F 94% 29.88 in 3.0 mi WNW 12.7 mph - N/A   Clear
9:55 AM 44.6 °F 37.8 °F 43.0 °F 94% 29.89 in 3.0 mi WNW 15.0 mph - N/A   Scattered Clouds
10:15 AM 44.8 °F 38.3 °F 43.3 °F 95% 29.89 in 4.0 mi WNW 13.8 mph - N/A   Mostly Cloudy
10:35 AM 45.9 °F 38.3 °F 44.1 °F 93% 29.89 in 4.0 mi WNW 19.6 mph 23.0 mph N/A   Mostly Cloudy
10:55 AM 45.3 °F 38.7 °F 41.5 °F 87% 29.90 in 5.0 mi WNW 15.0 mph - N/A   Mostly Cloudy
11:15 AM 46.4 °F 40.1 °F 41.4 °F 83% 29.90 in 7.0 mi NW 15.0 mph 20.7 mph N/A   Scattered Clouds
11:35 AM 47.5 °F - 39.9 °F 75% 29.90 in 10.0 mi NW 16.1 mph 21.9 mph N/A   Mostly Cloudy
11:55 AM 48.0 °F - 39.6 °F 73% 29.90 in 10.0 mi NW 15.0 mph - N/A   Mostly Cloudy
12:15 PM 49.1 °F - 38.8 °F 68% 29.90 in 10.0 mi WNW 13.8 mph 19.6 mph N/A   Scattered Clouds
12:35 PM 50.5 °F - 38.5 °F 63% 29.90 in 10.0 mi NW 18.4 mph 23.0 mph N/A   Clear
12:55 PM 51.1 °F - 37.2 °F 59% 29.90 in 10.0 mi NW 18.4 mph 27.6 mph N/A   Scattered Clouds
1:15 PM 51.8 °F - 35.8 °F 54% 29.89 in 10.0 mi NW 20.7 mph 31.1 mph N/A   Scattered Clouds
1:35 PM 53.2 °F - 33.3 °F 47% 29.90 in 10.0 mi WNW 25.3 mph 34.5 mph N/A   Scattered Clouds
1:55 PM 53.8 °F - 30.0 °F 40% 29.89 in 10.0 mi WNW 21.9 mph 35.7 mph N/A   Scattered Clouds
2:15 PM 54.3 °F - 29.7 °F 39% 29.89 in 10.0 mi NW 21.9 mph 35.7 mph N/A   Clear
2:35 PM 55.0 °F - 28.2 °F 36% 29.89 in 10.0 mi WNW 25.3 mph 33.4 mph N/A   Clear
2:55 PM 53.6 °F - 25.5 °F 34% 29.90 in 10.0 mi WNW 21.9 mph 29.9 mph N/A   Clear
3:15 PM 53.6 °F - 27.5 °F 37% 29.90 in 10.0 mi NW 21.9 mph 29.9 mph N/A   Clear
3:35 PM 52.5 °F - 30.2 °F 42% 29.90 in 10.0 mi NW 20.7 mph 28.8 mph N/A   Clear
3:55 PM 52.2 °F - 29.7 °F 42% 29.90 in 10.0 mi NNW 17.3 mph 27.6 mph N/A   Clear
4:15 PM 51.3 °F - 29.8 °F 44% 29.91 in 10.0 mi NW 25.3 mph 31.1 mph N/A   Clear
4:35 PM 51.4 °F - 27.7 °F 40% 29.91 in 10.0 mi NNW 17.3 mph 26.5 mph N/A   Clear
4:55 PM 50.4 °F - 27.7 °F 42% 29.92 in 10.0 mi NNW 19.6 mph 28.8 mph N/A   Clear
5:15 PM 49.5 °F - 28.4 °F 44% 29.92 in 10.0 mi NNW 16.1 mph 27.6 mph N/A   Clear
5:35 PM 47.8 °F - 28.2 °F 47% 29.93 in 10.0 mi NW 19.6 mph 24.2 mph N/A   Clear
5:55 PM 47.1 °F - 28.9 °F 49% 29.94 in 10.0 mi NNW 18.4 mph 24.2 mph N/A   Scattered Clouds
6:15 PM 45.5 °F 37.8 °F 28.6 °F 52% 29.94 in 10.0 mi NNW 19.6 mph 24.2 mph N/A   Scattered Clouds
6:35 PM 43.9 °F 36.5 °F 28.9 °F 56% 29.95 in 10.0 mi NNW 16.1 mph 24.2 mph N/A   Clear
6:55 PM 42.8 °F 34.8 °F 28.2 °F 56% 29.96 in 10.0 mi NNW 17.3 mph - N/A   Clear
7:15 PM 41.5 °F 33.5 °F 28.2 °F 59% 29.96 in 10.0 mi NNW 16.1 mph - N/A   Scattered Clouds
7:35 PM 40.6 °F 32.3 °F 28.2 °F 61% 29.97 in 10.0 mi NNW 16.1 mph - N/A   Scattered Clouds
7:55 PM 39.9 °F 31.8 °F 28.0 °F 63% 29.97 in 10.0 mi NNW 15.0 mph 20.7 mph N/A   Scattered Clouds
8:15 PM 39.2 °F 31.6 °F 27.3 °F 62% 29.98 in 10.0 mi NNW 12.7 mph - N/A   Mostly Cloudy
8:35 PM 38.5 °F 30.7 °F 27.3 °F 64% 29.99 in 10.0 mi NNW 12.7 mph - N/A   Scattered Clouds
8:55 PM 38.3 °F 30.9 °F 27.3 °F 65% 29.99 in 10.0 mi NNW 11.5 mph - N/A   Mostly Cloudy
9:15 PM 38.1 °F 29.5 °F 27.3 °F 65% 30.01 in 10.0 mi NNW 15.0 mph - N/A   Overcast
9:35 PM 37.8 °F 28.6 °F 26.6 °F 64% 30.02 in 10.0 mi NNW 16.1 mph - N/A   Overcast
10:15 PM 37.4 °F 27.5 °F 25.7 °F 63% 30.03 in 10.0 mi NW 18.4 mph 21.9 mph N/A   Overcast
10:35 PM 36.9 °F 27.5 °F 24.4 °F 61% 30.04 in 10.0 mi NNW 16.1 mph 24.2 mph N/A   Overcast
10:55 PM 35.6 °F 24.5 °F 21.7 °F 57% 30.05 in 10.0 mi NNW 20.7 mph 24.2 mph N/A   Overcast
11:15 PM 34.7 °F 23.7 °F 21.7 °F 59% 30.06 in 10.0 mi NNW 19.6 mph 26.5 mph N/A   Overcast
11:35 PM 34.2 °F 24.0 °F 22.5 °F 62% 30.06 in 10.0 mi NNW 16.1 mph 23.0 mph N/A   Overcast